OPS 4467B

operational
NORAD ID: 813 Int'l Des: 1964-031 Owner: NRO/SAFSP Country: US
LEOCIRCULARRETROGRADE

Über OPS 4467B

Beschreibung wird geladen...

Live-Position

3D-Globus wird geladen...

Nächste Überflüge

Höhenverlauf

Altitude vs Time

uPlot chart will show altitude changes over time

Zweizeiliger Elementsatz

1 813U 64031B 26062.38309583 .00000133 00000-0 81695-4 0 9991
2 813 99.8091 202.9434 0006066 110.8616 249.3209 14.23689200199873
Epoch: 3. März 2026 • Age: 18 hours

Aktueller Status

Höhe 815.5 km
Geschwindigkeit 7.45 km/s
Subsatellitenpunkt 26.22°N, 130.69°E
Typ other

Große Konstellationen

Loading constellations...